CZ-6A DEB

Satellite information

Favourite Embed

Satellite Type and Status

DEBRISIN ORBIT

Key statistics

Satellite CZ-6A DEB at a glance.

Uptime

970

Days in orbit

Revolutions

≈ 14.9

Per day

Orbit

SSO

Sun Synchronous Orbit

Inclination

98.8

Latest

Satellite identification and parameters

Extended collection of information and parameters for CZ-6A DEB.

Object identification

Identified? True

Debris? True

Object name: CZ-6A DEB

International designator: 2022-151TQ

Object number (NORAD): 54975

Object ID (CCSDS): 54975

Country: PEOPLES REPUBLIC OF CHINA (PRC)

Current information (Y/N): Y

RCS size: SMALL

Orbital parameters

Period: 96.897 minutes

Inclination: 98.8259 deg

SMA: 6988.207 km

Apoapsis: 672.882 km

Periapsis: 547.263 km

RAAN: 273.842 deg

Eccentricy: 0.0089879

Argument of periapsis: 232.3709 deg

Mean anomaly: 126.9322 deg

Mean motion: 14.86120745 rev/day

Mean motion (dot): 0.00024743 rev/day2

B* drag term: 0.0026228 1/REarth

Two-line elements (TLE)

Creation date: July 7, 2025, 6:34 p.m.

Reference frame: TEME

Reference center: EARTH

Epoch: July 7, 2025, 4:43 a.m. UTC

TLE line 0: 0 CZ-6A DEB

TLE line 1: 1 54975U 22151TQ 25188.19684198 .00024743 00000-0 26228-2 0 9993

TLE line 2: 2 54975 98.8259 273.8420 0089879 232.3709 126.9322 14.86120745140374

Live tracking on map

Real-time ground track for satellite CZ-6A DEB.

In-orbit conjunctions

A list of the most updated potential collisions computed for object CZ-6A DEB.

Target Orbit TCA Probability of collision Miss distance Type
FENGYUN 1C DEB SSO 2024-11-11 12:23:47 0.0002237819 324.0 (m) DEBRIS
HELIOS 1B SSO 2024-09-28 02:57:28 0.0001723122 569.0 (m) PAYLOAD

Associated space launch

Chinese satellite reported for atmospheric/ocean/environmental/spatial parameter research purposes, details TBD.

CZ-6A DEB was lifted into orbit during the mission ‘Long March 6A | Yunhai 3’, on board a Long March 6A space rocket.

The launch took place on Nov. 11, 2022, 10:52 p.m. from Launch Complex 9A.

For more information about the launch, click the button.

Launch to space Long March 6A | Yunhai 3
Long March 6A | Yunhai 3

Agency: N/A

Status: Launch Successful

Launch date: Nov. 11, 2022, 10:52 p.m. UTC

Rocket: Long March 6A

Launch pad: Launch Complex 9A

Location: Taiyuan Satellite Launch Center, People's Republic of China

...

Latest news about this satellite

There are no fresh news available about this satellite. Check back as we update our databases every day.


Newsletter sign-up

Weekly statistics, charts and insights to help you stay on top of the space industry.